Location: Harwich
(41.7160°N, 69.9939°W)
Time: 10:41:42
(UTC+01:00)

A-11 Canister half - All Passes

Search period start: 29 November 2023 00:00
Search period end: 09 December 2023 00:00
Orbit: 1524 x 1684 km, 47.3° (Epoch: 28 November)

Date Brightness Start Highest point End Pass type
(mag) Time Alt. Az. Time Alt. Az. Time Alt. Az.
29 Nov - 01:30:11 10° SSW 01:39:53 53° SE 01:49:28 10° ENE visible
29 Nov - 03:34:40 10° WSW 03:44:51 77° NNW 03:54:48 10° ENE visible
29 Nov - 05:40:55 10° WNW 05:50:55 64° N 06:00:34 10° E night (unlit)
29 Nov - 07:46:38 10° WNW 07:56:35 84° SSW 08:06:09 10° ESE visible
29 Nov - 09:52:31 10° WNW 10:00:43 32° SW 10:08:42 10° S visible
29 Nov - 23:10:42 10° SE 23:14:49 13° ESE 23:18:56 10° E visible
30 Nov - 01:08:31 10° SSW 01:18:10 50° SE 01:27:41 10° ENE visible
30 Nov - 03:12:51 10° WSW 03:23:04 79° NNW 03:33:02 10° ENE visible
30 Nov - 05:19:05 10° WNW 05:29:06 64° N 05:38:47 10° E night (unlit)
30 Nov - 07:24:51 10° WNW 07:34:50 87° SSW 07:44:26 10° ESE visible
30 Nov - 09:30:40 10° WNW 09:39:03 34° SW 09:47:12 10° SSE visible
30 Nov - 22:49:51 10° SE 22:53:10 12° ESE 22:56:29 10° E visible
01 Dec - 00:46:53 10° SSW 00:56:26 48° SE 01:05:54 10° ENE visible
01 Dec - 02:51:04 10° WSW 03:01:16 81° NNW 03:11:16 10° ENE visible
01 Dec - 04:57:15 10° WNW 05:07:17 64° N 05:17:00 10° E night (unlit)
01 Dec - 07:03:04 10° WNW 07:13:05 89° SSW 07:22:42 10° ESE visible
01 Dec - 09:08:49 10° WNW 09:17:23 36° SW 09:25:42 10° SSE visible
01 Dec - 22:29:21 10° SE 22:31:31 11° ESE 22:33:41 10° ESE daylight
02 Dec - 00:25:15 10° SSW 00:34:43 46° SE 00:44:06 10° ENE visible
02 Dec - 02:29:15 10° WSW 02:39:29 82° NNW 02:49:31 10° ENE visible
02 Dec - 04:35:26 10° W 04:45:29 64° N 04:55:14 10° E visible
02 Dec - 06:41:17 10° WNW 06:51:19 89° NNE 07:00:59 10° ESE visible
02 Dec - 08:46:59 10° WNW 08:55:42 38° SW 09:04:10 10° SSE visible
03 Dec - 00:03:38 10° SSW 00:13:00 44° SE 00:22:18 10° ENE visible
03 Dec - 02:07:27 10° WSW 02:17:41 84° NNW 02:27:45 10° ENE visible
03 Dec - 04:13:37 10° W 04:23:40 64° N 04:33:27 10° E visible
03 Dec - 06:19:29 10° WNW 06:29:33 86° NNE 06:39:15 10° ESE night (unlit)
03 Dec - 08:25:08 10° WNW 08:34:01 40° SW 08:42:38 10° SSE visible
03 Dec - 23:42:03 10° SSW 23:51:17 42° SE 00:00:29 10° ENE visible
04 Dec - 01:45:40 10° WSW 01:55:54 86° NNW 02:06:00 10° ENE visible
04 Dec - 03:51:47 10° W 04:01:51 64° N 04:11:39 10° E visible
04 Dec - 05:57:41 10° WNW 06:07:47 84° NNE 06:17:31 10° ESE night (unlit)
04 Dec - 08:03:18 10° WNW 08:12:20 42° SW 08:21:05 10° SSE visible
04 Dec - 23:20:27 10° SSW 23:29:34 40° SE 23:38:40 10° ENE visible
05 Dec - 01:23:53 10° WSW 01:34:07 88° NNW 01:44:14 10° ENE visible
05 Dec - 03:29:56 10° W 03:40:02 64° N 03:49:52 10° E visible
05 Dec - 05:35:54 10° WNW 05:46:01 83° NNE 05:55:46 10° ESE night (unlit)
05 Dec - 07:41:29 10° WNW 07:50:39 45° SW 07:59:31 10° SSE visible
05 Dec - 22:58:52 10° SSW 23:07:52 38° SE 23:16:51 10° ENE visible
06 Dec - 01:02:06 10° WSW 01:12:21 89° SE 01:22:28 10° ENE visible
06 Dec - 03:08:06 10° W 03:18:13 64° N 03:28:05 10° ENE visible
06 Dec - 05:14:05 10° WNW 05:24:14 81° NNE 05:34:01 10° ESE night (unlit)
06 Dec - 07:19:39 10° WNW 07:28:57 47° SW 07:37:56 10° SSE night (unlit)
06 Dec - 09:30:02 10° WSW 09:32:00 11° WSW 09:33:59 10° SW visible
06 Dec - 22:37:19 10° SSW 22:46:09 36° SE 22:55:01 10° ENE visible
07 Dec - 00:40:21 10° WSW 00:50:33 87° SSE 01:00:42 10° ENE visible
07 Dec - 02:46:17 10° W 02:56:23 64° N 03:06:17 10° ENE visible
07 Dec - 04:52:17 10° WNW 05:02:27 79° NNE 05:12:16 10° ESE visible
07 Dec - 06:57:50 10° WNW 07:07:15 49° SW 07:16:21 10° SSE night (unlit)
07 Dec - 09:07:12 10° W 09:10:22 12° WSW 09:13:32 10° SW night (unlit)
07 Dec - 22:15:47 10° SSW 22:24:27 34° SE 22:33:10 10° ENE daylight
08 Dec - 00:18:35 10° WSW 00:28:47 85° SSE 00:38:56 10° ENE visible
08 Dec - 02:24:27 10° W 02:34:34 65° N 02:44:30 10° ENE visible
08 Dec - 04:30:30 10° WNW 04:40:40 77° NNE 04:50:30 10° ESE visible
08 Dec - 06:36:02 10° WNW 06:45:32 52° SW 06:54:44 10° SSE night (unlit)
08 Dec - 08:44:44 10° W 08:48:45 13° WSW 08:52:43 10° SSW night (unlit)
08 Dec - 21:54:15 10° S 22:02:46 32° SE 22:11:18 10° ENE daylight
